P/2018 P4 ( PanSTARRS )

Japanese version
Home page
Updated on October 28, 2018

---------------------------------------------------------------------

* Profile

Discovery Date August 8, 2018
Magnitude 20.6 mag
Discoverer Pan-STARRS 1 telescope (Haleakala)

* Pictures

* Orbital Elements

Epoch 2018 Nov. 18.0 TT = JDT 2458440.5
T 2018 Nov. 7.32016 TT                                  MPCW
q   3.6661521            (2000.0)            P               Q
n   0.05736758     Peri.    8.11141     +0.99841422     -0.03085137
a   6.6582235      Node   353.11021     -0.01278530     +0.69032399
e   0.4493798      Incl.   23.11181     +0.05482309     +0.72284230
P  17.18
From 99 observations 2018 July 10-Oct. 15, mean residual 0".4.

* Magnitudes Graph

        m1 = 11.0 + 5 log d + 10.0 log r

---------------------------------------------------------------------

The orbital elements are published on M.P.E.C. 2018-U70.
The magnitudes graphs are made with Comet for Windows.

---------------------------------------------------------------------

Copyright(C) Seiichi Yoshida (comet@aerith.net). All rights reserved.